Regional Weather Roundup
Issued by NWS

Home | Current Version | Previous Version | Text Only | Print | Product List | Glossary Off
Versions: 1 2 3 4 5 6 7 8 9 10 11 12 13 14 15 16 17 18 19 20 21 22 23 24 25 26 27

000
ASUS43 KDMX 232307
RWRIA

WEATHER ROUNDUP FOR IOWA
NATIONAL WEATHER SERVICE DES MOINES IA
600 PM CDT THU OCT 23 2014

NOTE: "FAIR" INDICATES FEW OR NO CLOUDS BELOW 12,000 FEET WITH NO
SIGNIFICANT WEATHER AND/OR OBSTRUCTIONS TO VISIBILITY.

* - THESE STATIONS ARE NOT NWS STATIONS...THUS NOT UNDER NWS
QUALITY CONTROL.  THEY ALSO DO NOT REPORT WEATHER SUCH
AS PRECIPITATION OR FOG.

IAZ001>003-012>014-020>022-031>034-043>046-240000-
   NORTHWEST IOWA

CITY           SKY/WX    TMP DP  RH WIND       PRES   REMARKS
CARROLL *      CLEAR     64  41  42 CALM      30.00S
CHEROKEE *     CLEAR     64  48  55 S3        29.99S
DENISON *      CLEAR     66  45  45 CALM      29.98S
LE MARS *      CLEAR     64  46  52 S5        29.98S
ORANGE CITY *  CLEAR     64  46  52 S5        29.98S
SHELDON *      CLEAR     63  46  55 S7        29.97S
SIOUX CITY     CLEAR     66  45  46 S7        29.98S
SPENCER        CLEAR     62  45  53 SW6       29.99R
STORM LAKE *   CLEAR     63  43  48 SW5       30.00S
$$

IAZ055>058-069>071-079>083-090>094-240000-
   SOUTHWEST IOWA

CITY           SKY/WX    TMP DP  RH WIND       PRES   REMARKS
ATLANTIC *     CLEAR     68  46  45 CALM      30.00S
AUDUBON *      CLEAR     64  46  52 CALM      30.02R
CLARINDA *     CLEAR     68  50  52 CALM      30.03R
COUNCIL BLFS * CLEAR     66  50  55 SW3       30.00S
CRESTON *      CLEAR     66  46  48 NW3       30.02S
HARLAN  *      CLEAR     64  46  52 SW3       30.04R
LAMONI         CLEAR     65  56  72 S3        30.02S
RED OAK *      CLEAR     68  48  49 CALM      30.01S
SHENANDOAH *   CLEAR     68  52  56 CALM      30.02S
$$

IAZ047>049-059>061-072>074-084-240000-
   CENTRAL IOWA

CITY           SKY/WX    TMP DP  RH WIND       PRES   REMARKS
AMES           CLEAR     64  47  53 CALM      29.99F
ANKENY *       CLEAR     64  52  63 CALM      30.00S
CHARITON *     CLEAR     61  57  88 S7        30.02S
DES MOINES     CLEAR     69  48  47 CALM      30.00S
GRINNELL*      CLEAR     59  55  88 S3        30.02S
KNOXVILLE *    CLEAR     61  55  82 S6        30.00S
MARSHALLTOWN   CLEAR     59  53  80 SE5       30.00S
PELLA *        CLEAR     61  55  82 CALM      30.03S
PERRY *          N/A     63  45  51 CALM      30.00S
$$

IAZ004>006-015-016-023>025-035-036-240000-
   NORTH CENTRAL IOWA

CITY           SKY/WX    TMP DP  RH WIND       PRES   REMARKS
ALGONA *       CLEAR     63  50  63 SW6       29.99S
CLARION *      CLEAR     63  46  55 CALM      30.00R
ESTHERVILLE    CLEAR     63  38  39 W6        29.97F
FORT DODGE *   CLEAR     61  45  55 CALM      30.00S
MASON CITY     CLEAR     60  45  57 W3        30.00S
FOREST CITY *  CLEAR     59  46  63 S3        29.99S
IOWA FALLS *     N/A     61  46  59 CALM      30.01S
$$

IAZ007>011-017>019-026>030-037>042-050>054-066-240000-
   NORTHEAST IOWA

CITY           SKY/WX    TMP DP  RH WIND       PRES   REMARKS
CEDAR RAPIDS   PTCLDY    55  51  86 CALM      30.02S
CHARLES CITY * CLEAR     54  52  94 SE6       30.01S
CLINTON *      CLOUDY    55  48  76 S5        30.07S
DECORAH *      FOG       52  52 100 CALM      30.02R VSB 1/2
DUBUQUE        CLOUDY    51  49  92 SW3       30.04R
MONTICELLO *   CLOUDY    54  52  94 CALM      30.03S
OELWEIN *      CLOUDY    54  52  94 CALM      30.03S
WATERLOO       CLEAR     53  51  93 E5        30.01S
$$

IAZ064-065-067-068-078-240000-
   EAST CENTRAL IOWA

CITY           SKY/WX    TMP DP  RH WIND       PRES   REMARKS
DAVENPORT      CLOUDY    58  46  64 S3        30.04S
IOWA CITY      CLOUDY    56  55  97 SE3       30.04S
MT. PLEASANT * MOCLDY    59  50  72 CALM      30.03S
MUSCATINE *    CLOUDY    61  50  67 S5        30.04R
QUAD CITIES    CLOUDY    59  47  64 S6        30.04S
$$

IAZ062-063-075>077-085>089-095>099-240000-
   SOUTHEAST IOWA

CITY           SKY/WX    TMP DP  RH WIND       PRES   REMARKS
BURLINGTON     MOCLDY    57  51  80 S7        30.03S
FAIRFIELD *    CLOUDY    63  57  82 W5        30.03S
FORT MADISON * MOCLDY    61  52  72 S7        30.04S
KEOKUK *       CLOUDY    59  52  77 S8        30.04S
OSKALOOSA *      N/A     59  55  88 CALM      30.03S
CENTERVILLE *  CLEAR     59  57  94 CALM      30.04F
OTTUMWA        PTCLDY    59  55  87 CALM      30.02S
WASHINGTON *   CLOUDY    63  59  88 W5        30.03S
$$

ABBREVIATIONS USED IN REMARKS
   TC - TEMPERATURES IN CELSIUS
  WCI - WIND CHILL INDEX
   HX - HEAT INDEX
  VSB - VISIBILITY
$$




USA.gov is the U.S. government's official web portal to all federal, state and local government web resources and services.